• In Czech Republic
  • List of Countries
  • For 7 days
  • Water Temperature
  • Satellite Maps
  • Weather Map
  • Weather Widgets
  • user-avatar
    Login

    Hourly Weather Honolulu

    Today, 25 September, Tuesday

    Time Temperature Precipitation Wind Pressure Humidity
    00:00 +28°C° 0 mm 3 mps 757 mmHg 80%
    01:00 +28°C° 0 mm 3 mps 757 mmHg 82%
    02:00 +28°C° 0.1 mm 3 mps 757 mmHg 81%
    03:00 +28°C° 0.1 mm 3 mps 756 mmHg 81%
    04:00 +28°C° 0.1 mm 3 mps 756 mmHg 80%
    05:00 +29°C° 0 mm 3 mps 757 mmHg 77%
    06:00 +29°C° 0 mm 3 mps 757 mmHg 73%
    07:00 +30°C° 0 mm 4 mps 757 mmHg 70%
    08:00 +32°C° 0 mm 4 mps 757 mmHg 66%
    09:00 +33°C° 0 mm 4 mps 757 mmHg 62%
    10:00 +34°C° 0 mm 4 mps 757 mmHg 58%
    11:00 +35°C° 0.1 mm 4 mps 757 mmHg 57%
    12:00 +35°C° 0.1 mm 5 mps 757 mmHg 56%
    13:00 +35°C° 0.1 mm 5 mps 756 mmHg 55%
    14:00 +34°C° 0 mm 5 mps 756 mmHg 60%
    15:00 +34°C° 0 mm 5 mps 756 mmHg 64%
    16:00 +33°C° 0 mm 5 mps 756 mmHg 68%
    17:00 +32°C° 0 mm 5 mps 756 mmHg 73%
    18:00 +32°C° 0 mm 5 mps 757 mmHg 77%
    19:00 +30°C° 0 mm 5 mps 757 mmHg 82%
    20:00 +30°C° 0 mm 5 mps 757 mmHg 83%
    21:00 +29°C° 0 mm 5 mps 757 mmHg 85%
    22:00 +29°C° 0 mm 5 mps 758 mmHg 86%
    23:00 +29°C° 0.2 mm 5 mps 757 mmHg 87%

    Tomorrow, 26 September, Wednesday

    Time Temperature Precipitation Wind Pressure Humidity
    00:00 +29°C° 0.2 mm 5 mps 757 mmHg 88%
    01:00 +29°C° 0.2 mm 5 mps 757 mmHg 89%
    02:00 +29°C° 0.4 mm 5 mps 757 mmHg 89%
    03:00 +28°C° 0.4 mm 4 mps 757 mmHg 90%
    04:00 +28°C° 0.4 mm 4 mps 756 mmHg 91%
    05:00 +29°C° 0.2 mm 4 mps 757 mmHg 88%
    06:00 +29°C° 0.2 mm 4 mps 757 mmHg 86%
    07:00 +29°C° 0.2 mm 4 mps 758 mmHg 84%
    08:00 +30°C° 0.1 mm 4 mps 758 mmHg 78%
    09:00 +32°C° 0.1 mm 4 mps 758 mmHg 73%
    10:00 +33°C° 0.1 mm 4 mps 758 mmHg 67%
    11:00 +34°C° 0.2 mm 4 mps 758 mmHg 65%
    12:00 +34°C° 0.2 mm 4 mps 757 mmHg 63%
    13:00 +34°C° 0.2 mm 4 mps 757 mmHg 61%
    14:00 +34°C° 0.7 mm 4 mps 757 mmHg 64%
    15:00 +33°C° 0.7 mm 4 mps 757 mmHg 67%
    16:00 +33°C° 0.7 mm 4 mps 757 mmHg 70%
    17:00 +31°C° 0.6 mm 3 mps 757 mmHg 73%
    18:00 +30°C° 0.6 mm 3 mps 758 mmHg 77%
    19:00 +30°C° 0.6 mm 2 mps 758 mmHg 80%
    20:00 +29°C° 0.1 mm 2 mps 758 mmHg 82%
    21:00 +29°C° 0.1 mm 2 mps 759 mmHg 83%
    22:00 +29°C° 0.1 mm 2 mps 759 mmHg 84%
    23:00 +29°C° 0.1 mm 2 mps 758 mmHg 86%

    Day after tomorrow, 27 September, Thursday

    Time Temperature Precipitation Wind Pressure Humidity
    00:00 +28°C° 0.1 mm 2 mps 758 mmHg 87%
    01:00 +28°C° 0.1 mm 2 mps 758 mmHg 89%
    02:00 +28°C° 0.3 mm 1 mps 758 mmHg 90%
    03:00 +28°C° 0.3 mm 1 mps 758 mmHg 90%
    04:00 +28°C° 0.3 mm 1 mps 758 mmHg 91%
    05:00 +28°C° 0.8 mm 1 mps 758 mmHg 89%
    06:00 +29°C° 0.8 mm 2 mps 759 mmHg 86%
    07:00 +29°C° 0.8 mm 2 mps 759 mmHg 83%
    08:00 +30°C° 0.3 mm 2 mps 759 mmHg 78%
    09:00 +31°C° 0.3 mm 2 mps 760 mmHg 73%
    10:00 +34°C° 0.3 mm 2 mps 760 mmHg 68%
    11:00 +32°C° 1 mm 2 mps 759 mmHg 69%
    12:00 +32°C° 1 mm 2 mps 759 mmHg 70%
    13:00 +32°C° 1 mm 2 mps 758 mmHg 71%
    14:00 +33°C° 0.9 mm 3 mps 758 mmHg 73%
    15:00 +31°C° 0.9 mm 3 mps 758 mmHg 74%
    16:00 +31°C° 0.9 mm 3 mps 758 mmHg 76%
    17:00 +30°C° 0.1 mm 3 mps 759 mmHg 79%
    18:00 +30°C° 0.1 mm 3 mps 759 mmHg 82%
    19:00 +29°C° 0.1 mm 4 mps 759 mmHg 85%
    20:00 +29°C° 0 mm 4 mps 760 mmHg 87%
    21:00 +28°C° 0 mm 4 mps 760 mmHg 88%
    22:00 +28°C° 0 mm 4 mps 760 mmHg 89%
    23:00 +28°C° 0 mm 4 mps 759 mmHg 90%

    28 September, Friday

    Time Temperature Precipitation Wind Pressure Humidity
    00:00 +28°C° 0 mm 4 mps 759 mmHg 90%
    01:00 +27°C° 0 mm 4 mps 759 mmHg 91%
    02:00 +27°C° 0 mm 4 mps 759 mmHg 92%
    03:00 +27°C° 0 mm 4 mps 758 mmHg 92%
    04:00 +27°C° 0 mm 4 mps 758 mmHg 93%
    05:00 +27°C° 0 mm 4 mps 759 mmHg 92%
    06:00 +28°C° 0 mm 4 mps 759 mmHg 90%
    07:00 +28°C° 0 mm 5 mps 760 mmHg 89%
    08:00 +29°C° 0 mm 4 mps 760 mmHg 84%
    09:00 +30°C° 0 mm 4 mps 760 mmHg 79%
    10:00 +32°C° 0 mm 4 mps 760 mmHg 74%
    11:00 +32°C° 0 mm 4 mps 760 mmHg 72%
    12:00 +33°C° 0 mm 4 mps 759 mmHg 69%
    13:00 +33°C° 0 mm 4 mps 758 mmHg 66%
    14:00 +33°C° 0 mm 5 mps 758 mmHg 69%
    15:00 +32°C° 0 mm 5 mps 759 mmHg 72%
    16:00 +30°C° 0 mm 6 mps 759 mmHg 75%
    17:00 +30°C° 0 mm 6 mps 759 mmHg 78%
    18:00 +29°C° 0 mm 7 mps 760 mmHg 82%
    19:00 +28°C° 0 mm 7 mps 760 mmHg 85%
    20:00 +28°C° 0 mm 7 mps 760 mmHg 86%
    21:00 +28°C° 0 mm 7 mps 760 mmHg 87%
    22:00 +28°C° 0 mm 7 mps 760 mmHg 87%
    23:00 +28°C° 0 mm 7 mps 760 mmHg 88%

    29 September, Saturday

    Time Temperature Precipitation Wind Pressure Humidity
    00:00 +28°C° 0 mm 7 mps 759 mmHg 88%
    01:00 +28°C° 0 mm 7 mps 759 mmHg 89%
    02:00 +28°C° 0.1 mm 7 mps 759 mmHg 89%
    03:00 +28°C° 0.1 mm 7 mps 759 mmHg 89%
    04:00 +28°C° 0.1 mm 7 mps 759 mmHg 89%
    05:00 +28°C° 0.2 mm 8 mps 760 mmHg 89%
    06:00 +28°C° 0.2 mm 8 mps 760 mmHg 88%
    07:00 +28°C° 0.2 mm 8 mps 760 mmHg 88%
    08:00 +28°C° 0 mm 8 mps 760 mmHg 85%
    09:00 +29°C° 0 mm 8 mps 760 mmHg 82%
    10:00 +29°C° 0 mm 8 mps 760 mmHg 80%
    11:00 +29°C° 0 mm 8 mps 760 mmHg 78%
    12:00 +31°C° 0 mm 8 mps 759 mmHg 77%
    13:00 +31°C° 0 mm 8 mps 759 mmHg 75%
    14:00 +29°C° 0 mm 8 mps 759 mmHg 77%
    15:00 +29°C° 0 mm 9 mps 759 mmHg 78%
    16:00 +29°C° 0 mm 9 mps 759 mmHg 79%
    17:00 +28°C° 0 mm 9 mps 759 mmHg 80%
    18:00 +28°C° 0 mm 9 mps 760 mmHg 81%
    19:00 +27°C° 0 mm 8 mps 760 mmHg 82%
    20:00 +27°C° 0 mm 8 mps 760 mmHg 83%
    21:00 +27°C° 0 mm 8 mps 760 mmHg 83%
    22:00 +27°C° 0 mm 8 mps 760 mmHg 84%
    23:00 +27°C° 0 mm 8 mps 760 mmHg 84%

    30 September, Sunday

    Time Temperature Precipitation Wind Pressure Humidity
    00:00 +27°C° 0 mm 8 mps 760 mmHg 84%
    01:00 +27°C° 0 mm 7 mps 759 mmHg 84%
    02:00 +27°C° 0 mm 8 mps 759 mmHg 84%
    03:00 +27°C° 0 mm 8 mps 760 mmHg 84%
    04:00 +27°C° 0 mm 8 mps 760 mmHg 84%
    05:00 +28°C° 0 mm 8 mps 760 mmHg 83%
    06:00 +28°C° 0 mm 7 mps 760 mmHg 81%
    07:00 +28°C° 0 mm 7 mps 761 mmHg 80%
    08:00 +29°C° 0 mm 7 mps 761 mmHg 78%
    09:00 +29°C° 0 mm 7 mps 760 mmHg 75%
    10:00 +30°C° 0 mm 7 mps 760 mmHg 73%
    11:00 +30°C° 0 mm 7 mps 760 mmHg 74%
    12:00 +29°C° 0 mm 7 mps 759 mmHg 75%
    13:00 +29°C° 0 mm 7 mps 759 mmHg 75%
    14:00 +29°C° 0 mm 7 mps 759 mmHg 76%
    15:00 +29°C° 0 mm 6 mps 759 mmHg 77%
    16:00 +29°C° 0 mm 6 mps 759 mmHg 78%
    17:00 +28°C° 0 mm 6 mps 760 mmHg 80%
    18:00 +28°C° 0 mm 6 mps 760 mmHg 81%
    19:00 +28°C° 0 mm 6 mps 760 mmHg 82%
    20:00 +28°C° 0 mm 6 mps 760 mmHg 82%
    21:00 +27°C° 0 mm 6 mps 760 mmHg 82%
    22:00 +27°C° 0 mm 6 mps 760 mmHg 82%
    23:00 +27°C° 0 mm 6 mps 760 mmHg 83%
    Show more